Regional Weather Roundup
Issued by NWS Newport/Morehead, NC

Current Version | Previous Version | Text Only | Print | Product List | Glossary Off
Versions: 1 2 3 4 5 6 7 8 9 10 11 12 13 14 15 16 17 18 19 20 21 22 23 24 25 26 27 28 29 30 31 32 33 34 35 36 37 38 39 40 41 42 43 44 45 46 47 48 49 50
000 ASUS42 KMHX 281213 RWRMHX WEATHER ROUNDUP FOR EASTERN NORTH CAROLINA NATIONAL WEATHER SERVICE NEWPORT/MOREHEAD CITY NC 800 AM EDT THU JUL 28 2016 NOTE: "FAIR" INDICATES FEW OR NO CLOUDS BELOW 12,000 FEET WITH NO SIGNIFICANT WEATHER AND/OR OBSTRUCTIONS TO VISIBILITY NCZ015>017-031-032-045>047-102-103-281300- NORTH COAST CITY SKY/WX TMP DP RH WIND PRES REMARKS EDENTON SUNNY 83 78 83 W6 29.94S ELIZABETH CITY MOSUNNY 81 76 84 SW3 29.93R KITTY HAWK PTSUNNY 82 75 79 SW5 29.93S MANTEO N/A 80 77 90 NW5 29.95R $$ NCZ045>047-081-094-103-104-281300- CENTRAL COAST CITY SKY/WX TMP DP RH WIND PRES REMARKS FRISCO PTSUNNY 82 78 88 S3 29.95S $$ NCZ095-097-098-100-101-281300- SOUTHERN COAST CITY SKY/WX TMP DP RH WIND PRES REMARKS BEAUFORT SUNNY 83 80 91 SW10 N/A CEDAR ISLAND NOT AVBL JACKSONVILLE SUNNY 82 76 81 W10 29.94R PINEY ISLAND NOT AVBL WILMINGTON SUNNY 84 76 76 W8 29.96S $$ NCZ011>013-027>030-043-044-078>080-089-090>093-098-281300- COASTAL PLAIN CITY SKY/WX TMP DP RH WIND PRES REMARKS AHOSKIE SUNNY 78 74 88 CALM 29.93S CLINTON SUNNY 80 76 89 SW3 29.95S ELIZABETHTOWN SUNNY 81 75 81 SW6 29.96R GOLDSBORO SUNNY 83 79 89 SW9 29.93R GREENVILLE SUNNY 82 77 83 CALM 29.96R HAVELOCK SUNNY 82 77 84 SW8 29.95R KENANSVILLE NOT AVBL KINSTON SUNNY 82 75 78 SW6 29.94R NEW BERN SUNNY 82 76 81 SW6 29.95R RICHLANDS SUNNY 82 77 84 SW7 29.96R ROCKY MOUNT SUNNY 80 77 90 CALM 29.94R WASHINGTON SUNNY 80 76 88 SW6 29.94R WHITEVILLE SUNNY 82 75 81 SW5 29.96R $$ AMZ130-135-150-152-154-156-158-170-250-252-270-ANZ085-086-088-633-658-670-281300- MARINE OBSERVATIONS STATION/POSITION TIME TEMP WIND PRES WAVE SWELL AIR SEA DIR/SP/G HT/PER HT/PER (UTC) (F) (DEG/KT/KT) (MB) (FT/S) (FT/S) CHESAPEAKE LIGHT NOT AVBL 64 E VA BEACH 1150 81 81 210/ 4/ 4 1013.3 2/ 6 2/ 6 DUCK 1100 82 73 250/ 8/ 9 1013.0 2 E DUCK 1111 76 N/A 1/ 8 OREGON INLET 1100 81 84 250/ 5/ 6 1013.9 13E OREGON INLT 1200 79 N/A 2/ 6 2/ 6 HATTERAS CG 1100 81 83 210/ 4/ 5 1013.7 DIAMOND BUOY 1150 84 84 210/ 8/ 10 1014.4 2/ 6 2/ 6 CAPE LOOKOUT 1200 84 220/ 7/ 10 1013.9 BEAUFORT LAB 1100 83 82 230/ 3/ 7 1013.3 30 SE NEW RVR IN 1108 85 84 240/ 14/ 19 1014.2 30 SE NEW RVR IN 1125 84 N/A 4/ 5 27 SE WRIGHTSVLE 1108 84 84 240/ 14/ 19 1014.4 5 SE WRIGHTSVLE 1108 81 80 260/ 10/ 14 1015.0 225 S CAPE HAT 1150 84 84 280/ 12/ 14 1017.1 3/ 6 2/ 6 41 SE CHARLESTON 1150 86 86 260/ 16/ 19 1015.5 4/ 6 2/ 8 $$

USA.gov is the U.S. government's official web portal to all federal, state and local government web resources and services.